Location: Asheville, NC
(35.6000°N, 82.5500°W)
Time: 02:35:44
(UTC-04:00)

Vanguard 1 Rocket - Pass Details

Date: 13 March 2018
Orbit: 653 x 4224 km, 34.3° (Epoch: 20 June)

Event Time Altitude Azimuth Distance (km) Brightness Sun altitude
Rises 00:48:29 0° 284° (WNW) 5,828 11.8 -55.3°
Reaches altitude 10° 00:51:40 10° 281° (W) 5,195 11.4 -55.5°
Enters shadow 00:59:33 39° 264° (W) 4,102 10.5 -56.0°
